owner,sensor,date,latitude,longitude,vertical_datum,sea_water_temperature,qcFlag
Marubeni,ioos:station:wmo:42928:2,2020-11-22T16:37:00Z,27.5898,-90.3113,20.0,25.2,11111222
Marubeni,ioos:station:wmo:42928:2,2020-11-22T16:47:00Z,27.5898,-90.3113,20.0,25.2,11111222
Marubeni,ioos:station:wmo:42928:2,2020-11-22T16:57:00Z,27.5898,-90.3113,20.0,25.2,11111222
Marubeni,ioos:station:wmo:42928:2,2020-11-22T17:06:00Z,27.5898,-90.3113,20.0,25.2,11111222
Marubeni,ioos:station:wmo:42928:2,2020-11-22T17:15:00Z,27.5898,-90.3113,20.0,25.2,11111222
Marubeni,ioos:station:wmo:42928:2,2020-11-22T17:29:00Z,27.5898,-90.3114,20.0,25.2,11111222
Marubeni,ioos:station:wmo:42928:2,2020-11-22T17:35:00Z,27.5898,-90.3114,20.0,25.2,11111222
Marubeni,ioos:station:wmo:42928:2,2020-11-22T17:45:00Z,27.5898,-90.3114,20.0,25.2,11111222
Marubeni,ioos:station:wmo:42928:2,2020-11-22T17:53:00Z,27.5898,-90.3115,20.0,25.2,11111222
Marubeni,ioos:station:wmo:42928:2,2020-11-22T18:03:00Z,27.5898,-90.3115,20.0,25.1,11111222
Marubeni,ioos:station:wmo:42928:2,2020-11-22T18:13:00Z,27.5898,-90.3115,20.0,25.2,11111222
Marubeni,ioos:station:wmo:42928:2,2020-11-22T18:23:00Z,27.5898,-90.3115,20.0,25.2,11111222
Marubeni,ioos:station:wmo:42928:2,2020-11-22T18:33:00Z,27.5898,-90.3115,20.0,25.2,11111222
Marubeni,ioos:station:wmo:42928:2,2020-11-22T18:43:00Z,27.5898,-90.3114,20.0,25.2,11111222
Marubeni,ioos:station:wmo:42928:2,2020-11-22T18:53:00Z,27.5898,-90.3114,20.0,25.2,11111222
Marubeni,ioos:station:wmo:42928:2,2020-11-22T19:03:00Z,27.5898,-90.3114,20.0,25.2,11111222
Marubeni,ioos:station:wmo:42928:2,2020-11-22T19:13:00Z,27.5898,-90.3114,20.0,25.2,11111222
Marubeni,ioos:station:wmo:42928:2,2020-11-22T19:23:00Z,27.5898,-90.3114,20.0,25.2,11111222
Marubeni,ioos:station:wmo:42928:2,2020-11-22T19:33:00Z,27.5898,-90.3114,20.0,25.2,11111222
Marubeni,ioos:station:wmo:42928:2,2020-11-22T19:43:00Z,27.5898,-90.3114,20.0,25.2,11111222
Marubeni,ioos:station:wmo:42928:2,2020-11-22T19:53:00Z,27.5898,-90.3114,20.0,25.2,11111222
Marubeni,ioos:station:wmo:42928:2,2020-11-22T20:03:00Z,27.5898,-90.3114,20.0,25.2,11111222
Marubeni,ioos:station:wmo:42928:2,2020-11-22T20:13:00Z,27.5898,-90.3114,20.0,25.2,11111222
Marubeni,ioos:station:wmo:42928:2,2020-11-22T20:23:00Z,27.5898,-90.3114,20.0,25.2,11111222
Marubeni,ioos:station:wmo:42928:2,2020-11-22T20:33:00Z,27.5898,-90.3114,20.0,25.2,11111222
Marubeni,ioos:station:wmo:42928:2,2020-11-22T20:43:00Z,27.5898,-90.3115,20.0,25.2,11111222
Marubeni,ioos:station:wmo:42928:2,2020-11-22T20:53:00Z,27.5898,-90.3114,20.0,25.2,11111222
Marubeni,ioos:station:wmo:42928:2,2020-11-22T21:03:00Z,27.5898,-90.3114,20.0,25.2,11111222
Marubeni,ioos:station:wmo:42928:2,2020-11-22T21:13:00Z,27.5898,-90.3114,20.0,25.2,11111222
Marubeni,ioos:station:wmo:42928:2,2020-11-22T21:23:00Z,27.5898,-90.3114,17.0,25.3,11111222
Marubeni,ioos:station:wmo:42928:2,2020-11-22T21:33:00Z,27.5897,-90.3115,17.0,25.3,11111222
Marubeni,ioos:station:wmo:42928:2,2020-11-22T21:43:00Z,27.5898,-90.3114,17.0,25.3,11111222
Marubeni,ioos:station:wmo:42928:2,2020-11-22T21:53:00Z,27.5898,-90.3116,17.0,25.2,11111222
Marubeni,ioos:station:wmo:42928:2,2020-11-22T22:03:00Z,27.5898,-90.3115,17.0,25.3,11111222
Marubeni,ioos:station:wmo:42928:2,2020-11-22T22:13:00Z,27.5898,-90.3114,17.0,25.2,11111222
Marubeni,ioos:station:wmo:42928:2,2020-11-22T23:22:00Z,27.5898,-90.3114,17.0,25.2,11111222
Marubeni,ioos:station:wmo:42928:2,2020-11-22T23:32:00Z,27.5898,-90.3114,17.0,25.2,11111222
Marubeni,ioos:station:wmo:42928:2,2020-11-22T23:42:00Z,27.5898,-90.3114,17.0,25.2,11111222
Marubeni,ioos:station:wmo:42928:2,2020-11-22T23:52:00Z,27.5898,-90.3114,17.0,25.2,11111222
Marubeni,ioos:station:wmo:42928:2,2020-11-23T00:02:00Z,27.5898,-90.3114,17.0,25.2,11111222
Marubeni,ioos:station:wmo:42928:2,2020-11-23T00:12:00Z,27.5898,-90.3114,17.0,25.2,11111222
Marubeni,ioos:station:wmo:42928:2,2020-11-23T00:22:00Z,27.5898,-90.3114,17.0,25.2,11111222
Marubeni,ioos:station:wmo:42928:2,2020-11-23T00:32:00Z,27.5898,-90.3114,17.0,25.2,11111222
Marubeni,ioos:station:wmo:42928:2,2020-11-23T00:42:00Z,27.5898,-90.3114,17.0,25.2,11111222
Marubeni,ioos:station:wmo:42928:2,2020-11-23T00:52:00Z,27.5898,-90.3114,17.0,25.2,11111222
Marubeni,ioos:station:wmo:42928:2,2020-11-23T01:02:00Z,27.5898,-90.3114,17.0,25.2,11111222
Marubeni,ioos:station:wmo:42928:2,2020-11-23T01:12:00Z,27.5898,-90.3114,17.0,25.2,11111222
Marubeni,ioos:station:wmo:42928:2,2020-11-23T01:22:00Z,27.5898,-90.3114,17.0,25.2,11111222
Marubeni,ioos:station:wmo:42928:2,2020-11-23T01:32:00Z,27.5898,-90.3114,17.0,25.2,11111222
Marubeni,ioos:station:wmo:42928:2,2020-11-23T01:42:00Z,27.5898,-90.3114,17.0,25.2,11111222
Marubeni,ioos:station:wmo:42928:2,2020-11-23T01:52:00Z,27.5898,-90.3114,17.0,25.2,11111222
Marubeni,ioos:station:wmo:42928:2,2020-11-23T02:02:00Z,27.5898,-90.3114,17.0,25.2,11111222
Marubeni,ioos:station:wmo:42928:2,2020-11-23T02:12:00Z,27.5898,-90.3114,17.0,25.2,11111222
Marubeni,ioos:station:wmo:42928:2,2020-11-23T02:22:00Z,27.5898,-90.3114,17.0,25.2,11111222
Marubeni,ioos:station:wmo:42928:2,2020-11-23T02:32:00Z,27.5898,-90.3114,17.0,25.2,11111222
Marubeni,ioos:station:wmo:42928:2,2020-11-23T02:42:00Z,27.5898,-90.3114,17.0,25.2,11111222
Marubeni,ioos:station:wmo:42928:2,2020-11-23T02:52:00Z,27.5898,-90.3114,17.0,25.2,11111222
Marubeni,ioos:station:wmo:42928:2,2020-11-23T03:02:00Z,27.5898,-90.3114,17.0,25.2,11111222
Marubeni,ioos:station:wmo:42928:2,2020-11-23T03:12:00Z,27.5898,-90.3114,17.0,25.2,11111222
Marubeni,ioos:station:wmo:42928:2,2020-11-23T03:22:00Z,27.5898,-90.3114,17.0,25.2,11111222
Marubeni,ioos:station:wmo:42928:2,2020-11-23T03:32:00Z,27.5898,-90.3114,17.0,25.1,11111222
Marubeni,ioos:station:wmo:42928:2,2020-11-23T03:42:00Z,27.5898,-90.3114,17.0,25.2,11111222
Marubeni,ioos:station:wmo:42928:2,2020-11-23T03:52:00Z,27.5898,-90.3114,17.0,25.2,11111222
Marubeni,ioos:station:wmo:42928:2,2020-11-23T04:02:00Z,27.5898,-90.3114,17.0,25.2,11111222
Marubeni,ioos:station:wmo:42928:2,2020-11-23T04:12:00Z,27.5898,-90.3114,17.0,25.2,11111222
Marubeni,ioos:station:wmo:42928:2,2020-11-23T04:22:00Z,27.5898,-90.3114,17.0,25.2,11111222
Marubeni,ioos:station:wmo:42928:2,2020-11-23T04:32:00Z,27.5898,-90.3114,17.0,25.2,11111222
Marubeni,ioos:station:wmo:42928:2,2020-11-23T04:42:00Z,27.5898,-90.3114,17.0,25.2,11111222
Marubeni,ioos:station:wmo:42928:2,2020-11-23T04:52:00Z,27.5898,-90.3114,17.0,25.2,11111222
Marubeni,ioos:station:wmo:42928:2,2020-11-23T05:02:00Z,27.5898,-90.3114,17.0,25.2,11111222
Marubeni,ioos:station:wmo:42928:2,2020-11-23T05:12:00Z,27.5898,-90.3114,17.0,25.2,11111222
Marubeni,ioos:station:wmo:42928:2,2020-11-23T05:22:00Z,27.5898,-90.3114,17.0,25.2,11111222
Marubeni,ioos:station:wmo:42928:2,2020-11-23T05:32:00Z,27.5898,-90.3114,17.0,25.1,11111222
Marubeni,ioos:station:wmo:42928:2,2020-11-23T05:42:00Z,27.5898,-90.3114,17.0,25.2,11111222
Marubeni,ioos:station:wmo:42928:2,2020-11-23T05:52:00Z,27.5898,-90.3114,17.0,25.2,11111222
Marubeni,ioos:station:wmo:42928:2,2020-11-23T06:02:00Z,27.5898,-90.3114,17.0,25.1,11111222
Marubeni,ioos:station:wmo:42928:2,2020-11-23T06:12:00Z,27.5898,-90.3114,17.0,25.2,11111222
Marubeni,ioos:station:wmo:42928:2,2020-11-23T06:22:00Z,27.5898,-90.3114,17.0,25.2,11111222
Marubeni,ioos:station:wmo:42928:2,2020-11-23T06:32:00Z,27.5898,-90.3114,17.0,25.2,11111222
Marubeni,ioos:station:wmo:42928:2,2020-11-23T06:42:00Z,27.5898,-90.3114,17.0,25.2,11111222
Marubeni,ioos:station:wmo:42928:2,2020-11-23T06:52:00Z,27.5898,-90.3114,17.0,25.2,11111222
Marubeni,ioos:station:wmo:42928:2,2020-11-23T07:02:00Z,27.5898,-90.3114,17.0,25.1,11111222
Marubeni,ioos:station:wmo:42928:2,2020-11-23T07:12:00Z,27.5898,-90.3114,17.0,25.1,11111222
Marubeni,ioos:station:wmo:42928:2,2020-11-23T07:22:00Z,27.5898,-90.3114,17.0,25.1,11111222
Marubeni,ioos:station:wmo:42928:2,2020-11-23T07:32:00Z,27.5898,-90.3114,17.0,25.1,11111222
Marubeni,ioos:station:wmo:42928:2,2020-11-23T07:42:00Z,27.5898,-90.3114,17.0,25.1,11111222
Marubeni,ioos:station:wmo:42928:2,2020-11-23T07:52:00Z,27.5898,-90.3114,17.0,25.1,11111222
Marubeni,ioos:station:wmo:42928:2,2020-11-23T08:02:00Z,27.5898,-90.3114,17.0,25.1,11111222
Marubeni,ioos:station:wmo:42928:2,2020-11-23T08:12:00Z,27.5898,-90.3114,17.0,25.1,11111222
Marubeni,ioos:station:wmo:42928:2,2020-11-23T08:22:00Z,27.5898,-90.3114,17.0,25.1,11111222
Marubeni,ioos:station:wmo:42928:2,2020-11-23T08:32:00Z,27.5898,-90.3114,17.0,25.1,11111222
Marubeni,ioos:station:wmo:42928:2,2020-11-23T08:42:00Z,27.5898,-90.3114,17.0,25.1,11111222
Marubeni,ioos:station:wmo:42928:2,2020-11-23T08:52:00Z,27.5898,-90.3114,17.0,25.1,11111222
Marubeni,ioos:station:wmo:42928:2,2020-11-23T09:02:00Z,27.5898,-90.3114,17.0,25.1,11111222
Marubeni,ioos:station:wmo:42928:2,2020-11-23T09:12:00Z,27.5898,-90.3114,17.0,25.1,11111222
Marubeni,ioos:station:wmo:42928:2,2020-11-23T09:22:00Z,27.5898,-90.3114,17.0,25.1,11111222
Marubeni,ioos:station:wmo:42928:2,2020-11-23T09:32:00Z,27.5898,-90.3114,17.0,25.2,11111222
Marubeni,ioos:station:wmo:42928:2,2020-11-23T09:42:00Z,27.5898,-90.3114,17.0,25.1,11111222
Marubeni,ioos:station:wmo:42928:2,2020-11-23T09:52:00Z,27.5898,-90.3114,17.0,25.1,11111222
Marubeni,ioos:station:wmo:42928:2,2020-11-23T10:02:00Z,27.5898,-90.3114,17.0,25.1,11111222
Marubeni,ioos:station:wmo:42928:2,2020-11-23T10:12:00Z,27.5898,-90.3114,17.0,25.1,11111222
Marubeni,ioos:station:wmo:42928:2,2020-11-23T10:22:00Z,27.5898,-90.3114,17.0,25.1,11111222
Marubeni,ioos:station:wmo:42928:2,2020-11-23T10:32:00Z,27.5898,-90.3114,17.0,25.1,11111222
Marubeni,ioos:station:wmo:42928:2,2020-11-23T10:42:00Z,27.5898,-90.3114,17.0,25.1,11111222
Marubeni,ioos:station:wmo:42928:2,2020-11-23T10:52:00Z,27.5898,-90.3114,17.0,25.1,11111222
Marubeni,ioos:station:wmo:42928:2,2020-11-23T11:02:00Z,27.5898,-90.3114,17.0,25.1,11111222
Marubeni,ioos:station:wmo:42928:2,2020-11-23T11:12:00Z,27.5898,-90.3114,17.0,25.2,11111222
Marubeni,ioos:station:wmo:42928:2,2020-11-23T11:22:00Z,27.5898,-90.3114,17.0,25.1,11111222
Marubeni,ioos:station:wmo:42928:2,2020-11-23T11:32:00Z,27.5898,-90.3114,17.0,25.1,11111222
Marubeni,ioos:station:wmo:42928:2,2020-11-23T11:42:00Z,27.5898,-90.3114,17.0,25.2,11111222
Marubeni,ioos:station:wmo:42928:2,2020-11-23T11:52:00Z,27.5898,-90.3114,17.0,25.2,11111222
Marubeni,ioos:station:wmo:42928:2,2020-11-23T12:02:00Z,27.5898,-90.3114,17.0,25.2,11111222
Marubeni,ioos:station:wmo:42928:2,2020-11-23T12:12:00Z,27.5898,-90.3114,17.0,25.2,11111222
Marubeni,ioos:station:wmo:42928:2,2020-11-23T12:22:00Z,27.5898,-90.3114,17.0,25.2,11111222
Marubeni,ioos:station:wmo:42928:2,2020-11-23T12:32:00Z,27.5898,-90.3114,17.0,25.2,11111222
Marubeni,ioos:station:wmo:42928:2,2020-11-23T12:42:00Z,27.5898,-90.3114,17.0,25.2,11111222
Marubeni,ioos:station:wmo:42928:2,2020-11-23T12:52:00Z,27.5898,-90.3114,17.0,25.2,11111222
Marubeni,ioos:station:wmo:42928:2,2020-11-23T13:02:00Z,27.5898,-90.3114,17.0,25.2,11111222
Marubeni,ioos:station:wmo:42928:2,2020-11-23T13:12:00Z,27.5898,-90.3114,17.0,25.2,11111222
Marubeni,ioos:station:wmo:42928:2,2020-11-23T13:22:00Z,27.5898,-90.3114,17.0,25.2,11111222
Marubeni,ioos:station:wmo:42928:2,2020-11-23T13:32:00Z,27.5898,-90.3114,17.0,25.2,11111222
Marubeni,ioos:station:wmo:42928:2,2020-11-23T13:42:00Z,27.5898,-90.3114,17.0,25.2,11111222
Marubeni,ioos:station:wmo:42928:2,2020-11-23T13:52:00Z,27.5898,-90.3114,17.0,25.2,11111222
Marubeni,ioos:station:wmo:42928:2,2020-11-23T14:02:00Z,27.5898,-90.3114,17.0,25.2,11111222
Marubeni,ioos:station:wmo:42928:2,2020-11-23T14:12:00Z,27.5898,-90.3114,17.0,25.2,11111222
Marubeni,ioos:station:wmo:42928:2,2020-11-23T14:22:00Z,27.5898,-90.3114,17.0,25.2,11111222
Marubeni,ioos:station:wmo:42928:2,2020-11-23T14:32:00Z,27.5898,-90.3114,17.0,25.2,11111222
Marubeni,ioos:station:wmo:42928:2,2020-11-23T14:42:00Z,27.5898,-90.3114,17.0,25.2,11111222
Marubeni,ioos:station:wmo:42928:2,2020-11-23T14:52:00Z,27.5898,-90.3114,17.0,25.2,11111222
Marubeni,ioos:station:wmo:42928:2,2020-11-23T15:02:00Z,27.5898,-90.3114,17.0,25.2,11111222
Marubeni,ioos:station:wmo:42928:2,2020-11-23T15:12:00Z,27.5898,-90.3114,17.0,25.2,11111222
Marubeni,ioos:station:wmo:42928:2,2020-11-23T15:22:00Z,27.5898,-90.3114,17.0,25.2,11111222
Marubeni,ioos:station:wmo:42928:2,2020-11-23T15:32:00Z,27.5898,-90.3114,17.0,25.2,11111222
Marubeni,ioos:station:wmo:42928:2,2020-11-23T15:42:00Z,27.5898,-90.3114,17.0,25.2,11111222
Marubeni,ioos:station:wmo:42928:2,2020-11-23T15:52:00Z,27.5898,-90.3114,17.0,25.2,11111222
Marubeni,ioos:station:wmo:42928:2,2020-11-23T16:02:00Z,27.5898,-90.3114,17.0,25.2,11111222
Marubeni,ioos:station:wmo:42928:2,2020-11-23T16:12:00Z,27.5898,-90.3114,17.0,25.2,11111222
Marubeni,ioos:station:wmo:42928:2,2020-11-23T16:22:00Z,27.5898,-90.3114,17.0,25.2,11111222
Marubeni,ioos:station:wmo:42928:2,2020-11-23T16:32:00Z,27.5898,-90.3114,17.0,25.2,11111222
Marubeni,ioos:station:wmo:42928:2,2020-11-23T16:42:00Z,27.5898,-90.3114,17.0,25.2,11111222
Marubeni,ioos:station:wmo:42928:2,2020-11-23T16:52:00Z,27.5898,-90.3114,17.0,25.2,11111222
Marubeni,ioos:station:wmo:42928:2,2020-11-23T17:02:00Z,27.5898,-90.3114,17.0,25.2,11111222
Marubeni,ioos:station:wmo:42928:2,2020-11-23T17:12:00Z,27.5898,-90.3114,17.0,25.2,11111222
Marubeni,ioos:station:wmo:42928:2,2020-11-23T17:22:00Z,27.5898,-90.3114,17.0,25.2,11111222
Marubeni,ioos:station:wmo:42928:2,2020-11-23T17:32:00Z,27.5898,-90.3114,17.0,25.2,11111222
Marubeni,ioos:station:wmo:42928:2,2020-11-23T17:42:00Z,27.5898,-90.3114,17.0,25.2,11111222
Marubeni,ioos:station:wmo:42928:2,2020-11-23T17:52:00Z,27.5898,-90.3114,17.0,25.3,11111222
Marubeni,ioos:station:wmo:42928:2,2020-11-23T18:02:00Z,27.5898,-90.3114,17.0,25.2,11111222
Marubeni,ioos:station:wmo:42928:2,2020-11-23T18:12:00Z,27.5898,-90.3114,17.0,25.2,11111222
Marubeni,ioos:station:wmo:42928:2,2020-11-23T18:22:00Z,27.5898,-90.3114,17.0,25.2,11111222
Marubeni,ioos:station:wmo:42928:2,2020-11-23T18:32:00Z,27.5898,-90.3114,17.0,25.2,11111222
Marubeni,ioos:station:wmo:42928:2,2020-11-23T18:42:00Z,27.5898,-90.3114,17.0,25.3,11111222
Marubeni,ioos:station:wmo:42928:2,2020-11-23T18:52:00Z,27.5898,-90.3114,17.0,25.2,11111222
Marubeni,ioos:station:wmo:42928:2,2020-11-23T19:02:00Z,27.5898,-90.3114,17.0,25.2,11111222
Marubeni,ioos:station:wmo:42928:2,2020-11-23T19:12:00Z,27.5898,-90.3114,17.0,25.2,11111222
Marubeni,ioos:station:wmo:42928:2,2020-11-23T19:22:00Z,27.5898,-90.3114,17.0,25.3,11111222
Marubeni,ioos:station:wmo:42928:2,2020-11-23T19:32:00Z,27.5898,-90.3114,17.0,25.2,11111222
Marubeni,ioos:station:wmo:42928:2,2020-11-23T19:42:00Z,27.5898,-90.3114,17.0,25.2,11111222
Marubeni,ioos:station:wmo:42928:2,2020-11-23T19:52:00Z,27.5898,-90.3114,17.0,25.2,11111222
Marubeni,ioos:station:wmo:42928:2,2020-11-23T20:02:00Z,27.5898,-90.3114,17.0,25.3,11111222
Marubeni,ioos:station:wmo:42928:2,2020-11-23T20:12:00Z,27.5898,-90.3114,17.0,25.2,11111222
Marubeni,ioos:station:wmo:42928:2,2020-11-23T20:22:00Z,27.5898,-90.3114,17.0,25.3,11111222
Marubeni,ioos:station:wmo:42928:2,2020-11-23T20:32:00Z,27.5898,-90.3114,17.0,25.3,11111222
Marubeni,ioos:station:wmo:42928:2,2020-11-23T20:42:00Z,27.5898,-90.3114,17.0,25.2,11111222
Marubeni,ioos:station:wmo:42928:2,2020-11-23T20:52:00Z,27.5898,-90.3114,17.0,25.2,11111222
Marubeni,ioos:station:wmo:42928:2,2020-11-23T21:02:00Z,27.5898,-90.3114,17.0,25.2,11111222
Marubeni,ioos:station:wmo:42928:2,2020-11-23T21:12:00Z,27.5898,-90.3114,17.0,25.2,11111222
Marubeni,ioos:station:wmo:42928:2,2020-11-23T21:22:00Z,27.5898,-90.3114,17.0,25.2,11111222
Marubeni,ioos:station:wmo:42928:2,2020-11-23T21:32:00Z,27.5898,-90.3114,17.0,25.2,11111222
Marubeni,ioos:station:wmo:42928:2,2020-11-23T21:42:00Z,27.5898,-90.3114,17.0,25.3,11111222
Marubeni,ioos:station:wmo:42928:2,2020-11-23T21:52:00Z,27.5898,-90.3114,17.0,25.3,11111222
Marubeni,ioos:station:wmo:42928:2,2020-11-23T22:02:00Z,27.5898,-90.3114,17.0,25.2,11111222
Marubeni,ioos:station:wmo:42928:2,2020-11-23T22:12:00Z,27.5898,-90.3114,17.0,25.2,11111222
Marubeni,ioos:station:wmo:42928:2,2020-11-23T22:22:00Z,27.5898,-90.3114,17.0,25.2,11111222
Marubeni,ioos:station:wmo:42928:2,2020-11-23T22:37:00Z,27.5897,-90.3129,17.0,25.2,11111222
Marubeni,ioos:station:wmo:42928:2,2020-11-23T22:47:00Z,27.5897,-90.3129,17.0,25.2,11111222
Marubeni,ioos:station:wmo:42928:2,2020-11-23T22:57:00Z,27.5898,-90.3129,17.0,25.3,11111222
Marubeni,ioos:station:wmo:42928:2,2020-11-23T23:07:00Z,27.5897,-90.3130,17.0,25.3,11111222
Marubeni,ioos:station:wmo:42928:2,2020-11-23T23:17:00Z,27.5897,-90.3130,17.0,25.2,11111222
Marubeni,ioos:station:wmo:42928:2,2020-11-23T23:27:00Z,27.5898,-90.3131,17.0,25.2,11111222
Marubeni,ioos:station:wmo:42928:2,2020-11-23T23:37:00Z,27.5897,-90.3131,17.0,25.0,11111222
Marubeni,ioos:station:wmo:42928:2,2020-11-23T23:47:00Z,27.5897,-90.3130,17.0,25.0,11111222
Marubeni,ioos:station:wmo:42928:2,2020-11-23T23:57:00Z,27.5897,-90.3129,17.0,25.1,11111222
Marubeni,ioos:station:wmo:42928:2,2020-11-24T00:07:00Z,27.5897,-90.3128,17.0,25.0,11111222
Marubeni,ioos:station:wmo:42928:2,2020-11-24T00:17:00Z,27.5898,-90.3130,17.0,24.9,11111222
Marubeni,ioos:station:wmo:42928:2,2020-11-24T00:27:00Z,27.5897,-90.3128,17.0,24.9,11111222
Marubeni,ioos:station:wmo:42928:2,2020-11-24T00:37:00Z,27.5897,-90.3128,17.0,24.9,11111222
Marubeni,ioos:station:wmo:42928:2,2020-11-24T00:47:00Z,27.5899,-90.3127,17.0,24.9,11111222
Marubeni,ioos:station:wmo:42928:2,2020-11-24T00:57:00Z,27.5898,-90.3128,17.0,24.9,11111222
Marubeni,ioos:station:wmo:42928:2,2020-11-24T01:07:00Z,27.5897,-90.3129,17.0,24.9,11111222
Marubeni,ioos:station:wmo:42928:2,2020-11-24T01:17:00Z,27.5897,-90.3128,17.0,24.9,11111222
Marubeni,ioos:station:wmo:42928:2,2020-11-24T01:27:00Z,27.5897,-90.3128,17.0,24.9,11111222
Marubeni,ioos:station:wmo:42928:2,2020-11-24T01:37:00Z,27.5898,-90.3129,17.0,24.9,11111222
Marubeni,ioos:station:wmo:42928:2,2020-11-24T01:47:00Z,27.5897,-90.3129,17.0,24.9,11111222
Marubeni,ioos:station:wmo:42928:2,2020-11-24T01:57:00Z,27.5897,-90.3129,17.0,24.8,11111222
Marubeni,ioos:station:wmo:42928:2,2020-11-24T02:07:00Z,27.5897,-90.3129,17.0,24.8,11111222
Marubeni,ioos:station:wmo:42928:2,2020-11-24T02:17:00Z,27.5897,-90.3129,17.0,24.9,11111222
Marubeni,ioos:station:wmo:42928:2,2020-11-24T02:27:00Z,27.5897,-90.3129,17.0,24.8,11111222
Marubeni,ioos:station:wmo:42928:2,2020-11-24T02:37:00Z,27.5897,-90.3129,17.0,24.8,11111222
Marubeni,ioos:station:wmo:42928:2,2020-11-24T02:47:00Z,27.5897,-90.3129,17.0,24.8,11111222
Marubeni,ioos:station:wmo:42928:2,2020-11-24T02:57:00Z,27.5897,-90.3129,17.0,24.8,11111222
Marubeni,ioos:station:wmo:42928:2,2020-11-24T03:07:00Z,27.5897,-90.3129,17.0,24.8,11111222
Marubeni,ioos:station:wmo:42928:2,2020-11-24T03:17:00Z,27.5897,-90.3130,17.0,24.8,11111222
Marubeni,ioos:station:wmo:42928:2,2020-11-24T03:27:00Z,27.5897,-90.3129,17.0,24.7,11111222
Marubeni,ioos:station:wmo:42928:2,2020-11-24T03:37:00Z,27.5897,-90.3129,17.0,24.7,11111222
Marubeni,ioos:station:wmo:42928:2,2020-11-24T03:47:00Z,27.5899,-90.3130,17.0,24.7,11111222
Marubeni,ioos:station:wmo:42928:2,2020-11-24T04:06:00Z,27.5900,-90.3130,17.0,24.7,11111222
Marubeni,ioos:station:wmo:42928:2,2020-11-24T04:16:00Z,27.5900,-90.3130,17.0,24.6,11111222
Marubeni,ioos:station:wmo:42928:2,2020-11-24T04:26:00Z,27.5899,-90.3129,17.0,24.6,11111222
Marubeni,ioos:station:wmo:42928:2,2020-11-24T04:36:00Z,27.5899,-90.3130,17.0,24.6,11111222
Marubeni,ioos:station:wmo:42928:2,2020-11-24T04:46:00Z,27.5899,-90.3128,17.0,24.5,11111222
Marubeni,ioos:station:wmo:42928:2,2020-11-24T04:56:00Z,27.5899,-90.3129,17.0,24.5,11111222
Marubeni,ioos:station:wmo:42928:2,2020-11-24T05:06:00Z,27.5899,-90.3129,17.0,24.4,11111222
Marubeni,ioos:station:wmo:42928:2,2020-11-24T05:16:00Z,27.5899,-90.3129,17.0,24.5,11111222
Marubeni,ioos:station:wmo:42928:2,2020-11-24T05:26:00Z,27.5899,-90.3130,17.0,24.5,11111222
Marubeni,ioos:station:wmo:42928:2,2020-11-24T05:36:00Z,27.5899,-90.3130,17.0,24.5,11111222
Marubeni,ioos:station:wmo:42928:2,2020-11-24T05:46:00Z,27.5899,-90.3129,17.0,24.5,11111222
Marubeni,ioos:station:wmo:42928:2,2020-11-24T05:56:00Z,27.5900,-90.3131,17.0,24.4,11111222
Marubeni,ioos:station:wmo:42928:2,2020-11-24T06:06:00Z,27.5899,-90.3129,17.0,24.4,11111222
Marubeni,ioos:station:wmo:42928:2,2020-11-24T06:16:00Z,27.5899,-90.3129,17.0,24.4,11111222
Marubeni,ioos:station:wmo:42928:2,2020-11-24T06:26:00Z,27.5899,-90.3129,17.0,24.4,11111222
Marubeni,ioos:station:wmo:42928:2,2020-11-24T06:36:00Z,27.5899,-90.3130,17.0,24.4,11111222
Marubeni,ioos:station:wmo:42928:2,2020-11-24T06:46:00Z,27.5900,-90.3130,17.0,24.4,11111222
Marubeni,ioos:station:wmo:42928:2,2020-11-24T07:02:00Z,27.5900,-90.3129,17.0,24.5,11111222
Marubeni,ioos:station:wmo:42928:2,2020-11-24T07:12:00Z,27.5899,-90.3129,17.0,24.4,11111222
Marubeni,ioos:station:wmo:42928:2,2020-11-24T07:22:00Z,27.5899,-90.3129,17.0,24.4,11111222
Marubeni,ioos:station:wmo:42928:2,2020-11-24T07:32:00Z,27.5899,-90.3129,17.0,24.5,11111222
Marubeni,ioos:station:wmo:42928:2,2020-11-24T07:42:00Z,27.5899,-90.3129,17.0,24.5,11111222
Marubeni,ioos:station:wmo:42928:2,2020-11-24T07:52:00Z,27.5899,-90.3129,17.0,24.4,11111222
Marubeni,ioos:station:wmo:42928:2,2020-11-24T08:02:00Z,27.5899,-90.3130,17.0,24.4,11111222
Marubeni,ioos:station:wmo:42928:2,2020-11-24T08:12:00Z,27.5899,-90.3130,17.0,24.4,11111222
Marubeni,ioos:station:wmo:42928:2,2020-11-24T08:42:00Z,27.5899,-90.3130,17.0,24.4,11111222
Marubeni,ioos:station:wmo:42928:2,2020-11-24T08:52:00Z,27.5899,-90.3130,17.0,24.5,11111222
Marubeni,ioos:station:wmo:42928:2,2020-11-24T09:02:00Z,27.5899,-90.3129,17.0,24.6,11111222
Marubeni,ioos:station:wmo:42928:2,2020-11-24T09:12:00Z,27.5899,-90.3129,17.0,24.6,11111222
Marubeni,ioos:station:wmo:42928:2,2020-11-24T09:22:00Z,27.5902,-90.3127,17.0,24.6,11111222
Marubeni,ioos:station:wmo:42928:2,2020-11-24T09:32:00Z,27.5904,-90.3128,17.0,24.5,11111222
Marubeni,ioos:station:wmo:42928:2,2020-11-24T09:42:00Z,27.5903,-90.3127,17.0,24.5,11111222
Marubeni,ioos:station:wmo:42928:2,2020-11-24T09:52:00Z,27.5904,-90.3129,17.0,24.7,11111222
Marubeni,ioos:station:wmo:42928:2,2020-11-24T10:02:00Z,27.5904,-90.3129,17.0,24.7,11111222
Marubeni,ioos:station:wmo:42928:2,2020-11-24T10:12:00Z,27.5903,-90.3129,17.0,24.5,11111222
Marubeni,ioos:station:wmo:42928:2,2020-11-24T10:22:00Z,27.5903,-90.3129,17.0,24.4,11111222
Marubeni,ioos:station:wmo:42928:2,2020-11-24T10:32:00Z,27.5902,-90.3128,17.0,24.4,11111222
Marubeni,ioos:station:wmo:42928:2,2020-11-24T10:42:00Z,27.5902,-90.3128,17.0,24.5,11111222
Marubeni,ioos:station:wmo:42928:2,2020-11-24T10:52:00Z,27.5902,-90.3128,17.0,24.5,11111222
Marubeni,ioos:station:wmo:42928:2,2020-11-24T11:02:00Z,27.5903,-90.3129,17.0,24.4,11111222
Marubeni,ioos:station:wmo:42928:2,2020-11-24T11:12:00Z,27.5903,-90.3129,17.0,24.4,11111222
Marubeni,ioos:station:wmo:42928:2,2020-11-24T11:22:00Z,27.5903,-90.3129,17.0,24.4,11111222
Marubeni,ioos:station:wmo:42928:2,2020-11-24T11:32:00Z,27.5902,-90.3129,17.0,24.4,11111222
Marubeni,ioos:station:wmo:42928:2,2020-11-24T11:42:00Z,27.5902,-90.3128,17.0,24.4,11111222
Marubeni,ioos:station:wmo:42928:2,2020-11-24T11:52:00Z,27.5902,-90.3128,17.0,24.5,11111222
Marubeni,ioos:station:wmo:42928:2,2020-11-24T12:02:00Z,27.5903,-90.3128,17.0,24.5,11111222
Marubeni,ioos:station:wmo:42928:2,2020-11-24T12:12:00Z,27.5902,-90.3128,17.0,24.5,11111222
Marubeni,ioos:station:wmo:42928:2,2020-11-24T12:22:00Z,27.5902,-90.3129,17.0,24.5,11111222
Marubeni,ioos:station:wmo:42928:2,2020-11-24T12:32:00Z,27.5903,-90.3129,17.0,24.4,11111222
Marubeni,ioos:station:wmo:42928:2,2020-11-24T12:42:00Z,27.5902,-90.3129,17.0,24.4,11111222
Marubeni,ioos:station:wmo:42928:2,2020-11-24T12:52:00Z,27.5903,-90.3130,17.0,24.3,11111222
Marubeni,ioos:station:wmo:42928:2,2020-11-24T13:02:00Z,27.5904,-90.3130,17.0,24.3,11111222
Marubeni,ioos:station:wmo:42928:2,2020-11-24T13:12:00Z,27.5904,-90.3130,17.0,24.2,11111222